Regional Weather Roundup
Issued by NWS Green Bay, WI

Home | Current Version | Previous Version | Graphics & Text | Print | Product List | Glossary Off
Versions: 1 2 3 4 5 6 7 8 9 10 11 12 13 14 15 16 17 18 19 20 21 22 23 24 25 26 27 28 29 30 31 32 33 34 35 36 37 38 39 40 41 42 43 44 45 46 47 48 49 50

949
ASUS43 KGRB 060411
RWRGRB

NORTH-CENTRAL AND NORTHEAST WISCONSIN REGIONAL WEATHER ROUNDUP
NATIONAL WEATHER SERVICE GREEN BAY WI
1000 PM CST FRI FEB 05 2016

WIZ005-009-010>012-018-019-060500-
NORTH CENTRAL WISCONSIN

CITY           SKY/WX    TMP DP  RH WIND       PRES   REMARKS
IRONWOOD       CLOUDY    23  16  74 SW14      30.08S
MANITOWISH WTR LGT SNOW  21  13  71 SW10G16   30.09S WCI   9
ARBOR VITAE    FLURRIES  22  13  69 SW9       30.10F
EAGLE RIVER    CLOUDY    22  10  59 SW10G18   30.10S
LAND O LAKES   CLOUDY    23  10  58 SW9G18    30.09F
RHINELANDER    CLOUDY    21  12  68 SW10      30.13F WCI  10
PHILLIPS       FLURRIES  20  14  77 SW13      30.12F WCI   7
ANTIGO         CLOUDY    20  14  76 SW14      30.16F WCI   7
TOMAHAWK       CLOUDY    20  13  73 CALM      30.16S
MERRILL        CLOUDY    21  14  75 SW6       30.19S
$$

WIZ013-073-060500-
NORTHEAST WISCONSIN

CITY           SKY/WX    TMP DP  RH WIND       PRES   REMARKS
IRON MOUNTAIN  CLOUDY    24  10  55 SW9       30.12F
MARINETTE      CLOUDY    21  16  79 SW9       30.21F
OCONTO         CLOUDY    21  16  83 SW5       30.23F
$$

WIZ017-030-035>037-045-060500-
CENTRAL WISCONSIN

CITY           SKY/WX    TMP DP  RH WIND       PRES   REMARKS
MEDFORD        FLURRIES  20  15  80 SW8       30.16F
WAUSAU         CLOUDY    22  13  68 SW8       30.18F
MOSINEE        CLOUDY    21  16  79 CALM      30.21F
MARSHFIELD     CLOUDY    22  12  65 SW9       30.19F
WISC RAPIDS    CLOUDY    22  15  75 SW5       30.24S
STEVENS POINT  CLOUDY    20  15  79 SW3       30.23S
WAUPACA        CLOUDY    24  18  77 S3        30.24F
SHAWANO        CLOUDY    25  17  71 SW3       30.24S
CLINTONVILLE   CLOUDY    21  16  79 SW3       30.23F
WAUTOMA        CLOUDY    25  18  74 S7        30.25F
$$

WIZ038-039-048-051-060500-
FOX VALLEY

CITY           SKY/WX    TMP DP  RH WIND       PRES   REMARKS
NWS GREEN BAY  CLOUDY    23  16  74 SW7       30.25F
APPLETON       CLOUDY    23  16  74 S9        30.22F
OSHKOSH        CLOUDY    22  14  71 S10       30.24F
FOND DU LAC    MOCLDY    24  16  71 SW9       30.25F
$$

WIZ022-050-052-060500-
EAST CENTRAL WISCONSIN

CITY           SKY/WX    TMP DP  RH WIND       PRES   REMARKS
EPHRAIM        CLOUDY    24  16  71 SW6       30.20F
STURGEON BAY   CLOUDY    21  12  68 SW9       30.24F
MANITOWOC      CLOUDY    24  18  77 SW8       30.26F
SHEBOYGAN        N/A     25  16  68 SW9       30.26F
$$

LMZ563-521-522-541>543-060500-
LAKESHORE

STATION/POSITION TIME  TEMP    WIND        PRES    VSBY  WAVE
                       AIR SEA DIR/SP/G                  HT/PER
                 (UTC) (F)     (DEG/KT/KT) (MB)    (MI)  (FT/S)
SHEBOYGAN LKSHOR 0400   27     220/  8/  9 1026.2F
KEWAUNEE LKSHORE 0300   24     260/  7/ 11 1023.8F
CHAMBERS ISLAND  0300   22     180/  4/ 10 1023.7F
MENOMINEE LKSHOR 0300   22     190/  7     1022.7F
$$




USA.gov is the U.S. government's official web portal to all federal, state and local government web resources and services.